Weather Roundup
Issued by NWS

Home | Current Version | Previous Version | Text Only | Print | Product List | Glossary On
Versions: 1 2 3 4 5 6 7 8 9 10 11 12 13 14 15 16 17 18 19 20 21 22 23 24 25 26 27 28 29 30 31 32 33 34 35 36 37 38 39 40 41 42 43 44 45 46 47 48 49 50
000
NZUS93 KARX 221410
HRRWXR

CURRENT HOURLY OBSERVATIONS ACROSS
MUCH OF THE UPPER MISSISSIPPI VALLEY
NATIONAL WEATHER SERVICE LA CROSSE WI
900 AM CDT TUE JUL 22 2014


...SOUTHEAST MINNESOTA...


CITY           SKY/WX    TMP DP  RH WIND       PRES   REMARKS
ROCHESTER      SUNNY     81  71  71 NW13      29.96R
ROCHESTER/MAYO FAIR      80  66  62 W13G20    29.94F
WINONA         MOSUNNY   81  72  74 W7        29.91R
AUSTIN         SUNNY     81  70  69 NW13      29.96S
ALBERT LEA     MOSUNNY   75  64  69 NW9       29.98R
DODGE CENTER   MOSUNNY   79  66  65 NW14G20   29.96F
PRESTON        PTSUNNY   78  77  97 NW13      29.96S
OWATONNA       PTSUNNY   75  64  69 NW13      29.97S
FARIBAULT      PTSUNNY   79  61  53 W9        29.96F
$$

...ELSEWHERE IN MINNESOTA...


CITY           SKY/WX    TMP DP  RH WIND       PRES   REMARKS
MINNEAPOLIS    MOSUNNY   76  64  66 NW18      29.94R
INTNL FALLS    CLOUDY    64  61  90 NW12      29.92R
DULUTH         CLOUDY    70  62  76 NW16G31   29.87R
RED WING       SUNNY     81  64  57 NW13      29.92R
REDWOOD FALLS  CLOUDY    71  64  78 NW10G18   30.00R
MANKATO        PTSUNNY   72  63  73 NW8       29.96F
WORTHINGTON    PTSUNNY   70  64  83 N16G22    30.03R
FAIRMONT       MOSUNNY   73  63  68 N8        29.97F
$$

...SOUTHWEST WISCONSIN...


CITY           SKY/WX    TMP DP  RH WIND       PRES   REMARKS
LA CROSSE      CLOUDY    80  72  76 VRB5      29.91R
PRAIRIE DU CHI SUNNY     81  69  67 S5        29.91F
BOSCOBEL       MOSUNNY   82  70  66 SW9       29.92S
LONE ROCK      MOSUNNY   83  71  67 SW7       29.93R
PLATTEVILLE    SUNNY     78  71  78 SW13      29.97R
FORT MC COY    CLOUDY    78  69  73 SW5       29.92R
CAMP DOUGLAS   PTSUNNY   79  73  83 SW13G20   29.91S
VIROQUA        CLOUDY    77  71  81 SW12      29.95R
WIS DELLS      MOSUNNY   80  67  64 SW15      29.93R
$$

...ELSEWHERE IN WISCONSIN...


CITY           SKY/WX    TMP DP  RH WIND       PRES   REMARKS
MILWAUKEE      PTSUNNY   77  66  68 SW12      29.97S
MADISON        PTSUNNY   79  68  69 S15       29.93F
GREEN BAY      CLOUDY    77  69  76 S13G25    29.89S
EAU CLAIRE     MOSUNNY   82  72  71 W21G29    29.88R
BLACK RVR FLS  CLOUDY    78  70  77 SW8       29.91R
MEDFORD        CLOUDY    76  72  87 SW13G18   29.88S
WAUSAU         CLOUDY    76  69  79 SW12      29.87S
WIS RAPIDS     CLOUDY    78  70  76 SW10      29.91S
MARSHFIELD     CLOUDY    77  71  82 W13       29.89F
RICE LAKE      MOSUNNY   74  63  67 W18G25    29.93R
$$

...NORTHEAST IOWA...


CITY           SKY/WX    TMP DP  RH WIND       PRES   REMARKS
WATERLOO       PTSUNNY   82  74  76 W14       29.94R
DUBUQUE        SUNNY     77  71  82 SW16      29.97R
DECORAH        CLOUDY    77  73  88 VRB3G16   29.95R
MASON CITY     SUNNY     80  71  74 NW17      29.98S
CHARLES CITY   CLOUDY    79  75  89 NW12G18   29.96S FOG
OELWEIN        MOSUNNY   81  75  83 SW10      29.97R
$$

...ELSEWHERE IN IOWA...


CITY           SKY/WX    TMP DP  RH WIND       PRES   REMARKS
DES MOINES     PTSUNNY   83  75  77 W18       29.94R HX  90
IOWA CITY      MOSUNNY   78  71  79 S16G22    29.98R
FORT DODGE     SUNNY     79  66  65 N10       29.99S
MARSHALLTOWN   SUNNY     83  75  77 W12G21    29.94R HX  90
CEDAR RAPIDS   MOSUNNY   79  71  76 S16       29.95R
$$

...NORTHERN ILLINOIS...


CITY           SKY/WX    TMP DP  RH WIND       PRES   REMARKS
CHICAGO-OHARE  MOSUNNY   78  63  59 S12G20    30.00F
DUPAGE         SUNNY     78  67  68 S12G21    30.01F
CHICAGO-MIDWAY SUNNY     79  66  64 S12G21    30.02F
MOLINE         PTSUNNY   78  69  73 SW8       29.97F
ROCKFORD       PTSUNNY   76  67  73 SW16      30.00S
STERLING       SUNNY     79  70  73 W7        30.00R
PEORIA         SUNNY     78  67  68 SW14      30.03F
$$

NOTE: "FAIR" INDICATES FEW OR NO CLOUDS BELOW 12,000 FEET WITH NO
SIGNIFICANT WEATHER AND/OR OBSTRUCTIONS TO VISIBILITY. WIND
SPEEDS ARE IN MILES-PER-HOUR.



USA.gov is the U.S. government's official web portal to all federal, state and local government web resources and services.